7 * 24
多渠道服务支持
STARLINK-32484 是 SpaceX Starlink 卫星互联网项目中的一颗低轨道卫星。它属于 Starlink 群体中的一部分,旨在为全球用户提供高速互联网服务。该卫星运行在约 550 公里的高度,采用可控制轨道设计,以减少太空垃圾风险。它通过 KU/Ka 频段与地面用户终端通信,支持宽带接入,特别适用于偏远地区。STARLINK-32484 的发射和运行体现了 SpaceX 在构建全球卫星互联网基础设施方面的持续努力。
美国
(US)
| 数据来源 | 国际轨道数据 |
| 星历时间: | 2025-12-19T18:34:02+0800 22小时前 查看轨道信息 |
| 半长轴: | 6861.179km |
| 偏心率: | 0.0000419 |
| 轨道倾角: | 42.994° |
| 近地点辐角 | 62.688° |
| 升交点赤经 | 251.593° |
| 平近点角 | 297.402° |
| 近地点: | 482.754km |
| 远地点: | 483.33km |
| 周期: | 94.267分钟 |
| 每日圈数: | 15.275827 |